TimeMST,TemperatureF,Dew PointF,Humidity,Sea Level PressureIn,VisibilityMPH,Wind Direction,Wind SpeedMPH,Gust SpeedMPH,PrecipitationIn,Events,Conditions,WindDirDegrees,DateUTC
12:57 AM,24.1,21.0,88,30.30,10.0,Calm,Calm,-,N/A,,Clear,0,2011-11-23 07:57:00
1:57 AM,23.0,21.0,92,30.28,10.0,Calm,Calm,-,N/A,,Clear,0,2011-11-23 08:57:00
2:57 AM,21.9,19.9,92,30.27,9.0,Calm,Calm,-,N/A,,Clear,0,2011-11-23 09:57:00
3:57 AM,21.9,19.0,89,30.27,10.0,Calm,Calm,-,N/A,,Clear,0,2011-11-23 10:57:00
4:57 AM,21.9,19.0,89,30.28,10.0,Calm,Calm,-,N/A,,Clear,0,2011-11-23 11:57:00
5:57 AM,21.0,18.0,88,30.32,10.0,Calm,Calm,-,N/A,,Clear,0,2011-11-23 12:57:00
6:57 AM,19.9,17.1,89,30.35,10.0,Calm,Calm,-,N/A,,Clear,0,2011-11-23 13:57:00
7:57 AM,25.0,21.0,85,30.35,10.0,Calm,Calm,-,N/A,,Clear,0,2011-11-23 14:57:00
8:57 AM,37.9,28.9,70,30.30,10.0,NE,6.9,-,N/A,,Clear,40,2011-11-23 15:57:00
9:57 AM,45.0,30.0,56,30.26,10.0,NE,6.9,-,N/A,,Clear,40,2011-11-23 16:57:00
10:57 AM,50.0,28.9,44,30.22,10.0,NE,6.9,-,N/A,,Clear,40,2011-11-23 17:57:00
11:57 AM,54.0,30.9,41,30.18,10.0,NE,6.9,-,N/A,,Clear,40,2011-11-23 18:57:00
12:57 PM,55.9,30.0,37,30.14,10.0,NE,8.1,-,N/A,,Clear,50,2011-11-23 19:57:00
1:57 PM,57.9,30.9,36,30.11,10.0,NE,3.5,-,N/A,,Clear,40,2011-11-23 20:57:00
2:57 PM,57.0,23.0,27,30.10,10.0,SSW,6.9,-,N/A,,Clear,210,2011-11-23 21:57:00
3:57 PM,55.9,19.0,24,30.10,10.0,SSW,5.8,-,N/A,,Clear,210,2011-11-23 22:57:00
4:57 PM,52.0,19.9,28,30.11,10.0,South,3.5,-,N/A,,Clear,190,2011-11-23 23:57:00
5:57 PM,39.9,24.1,53,30.17,10.0,Calm,Calm,-,N/A,,Clear,0,2011-11-24 00:57:00
6:57 PM,34.0,21.9,61,30.22,10.0,Calm,Calm,-,N/A,,Clear,0,2011-11-24 01:57:00
7:57 PM,28.9,19.9,69,30.23,10.0,Calm,Calm,-,N/A,,Clear,0,2011-11-24 02:57:00
8:57 PM,27.0,19.9,75,30.17,10.0,Calm,Calm,-,N/A,,Clear,0,2011-11-24 03:57:00
9:57 PM,26.1,19.0,75,30.13,10.0,Calm,Calm,-,N/A,,Clear,0,2011-11-24 04:57:00
10:57 PM,26.1,19.0,75,30.08,10.0,Calm,Calm,-,N/A,,Clear,0,2011-11-24 05:57:00
11:57 PM,26.1,19.9,78,30.06,10.0,Calm,Calm,-,N/A,,Clear,0,2011-11-24 06:57:00